Location: Unspecified
(42.3650°N, 71.1030°W)
Time: 16:41:33
(UTC+00:00)

Courier 1B - Pass Details

Date: 26 June 2024
Orbit: 962 x 1208 km, 28.3° (Epoch: 15 May)

Event Time Altitude Azimuth Distance (km) Brightness Sun altitude
Rises 07:01:31 0° 253° (WSW) 3,835 - -17.4°
Reaches altitude 10° 07:04:49 10° 239° (WSW) 2,923 - -17.0°
Exits shadow 07:09:40 22° 197° (SSW) 2,203 8.8 -16.6°
Maximum altitude 07:10:09 23° 191° (SSW) 2,201 8.8 -16.5°
Drops below altitude 10° 07:15:42 10° 143° (SE) 3,053 9.9 -15.9°
Sets 07:19:15 0° 130° (SE) 4,048 10.7 -15.5°
